IRS 1A

Satellite information

Favourite Embed

Satellite Type and Status

PAYLOADIN ORBIT

Key statistics

Satellite IRS 1A at a glance.

Uptime

13785

Days in orbit

Revolutions

≈ 14.0

Per day

Orbit

SSO

Sun Synchronous Orbit

Inclination

98.9

Latest

Satellite identification and parameters

Extended collection of information and parameters for IRS 1A.

Object identification

Identified? True

Debris? False

Object name: IRS 1A

International designator: 1988-021A

Object number (NORAD): 18960

Object ID (CCSDS): 18960

Country: INDIA (IND)

Current information (Y/N): Y

RCS size: LARGE

Orbital parameters

Period: 103.068 minutes

Inclination: 98.8802 deg

SMA: 7281.844 km

Apoapsis: 914.049 km

Periapsis: 893.369 km

RAAN: 42.484 deg

Eccentricy: 0.00142002

Argument of periapsis: 9.3264 deg

Mean anomaly: 45.1487 deg

Mean motion: 13.97142499 rev/day

Mean motion (dot): -0.0000009 rev/day2

B* drag term: -0.000033762387 1/REarth

Two-line elements (TLE)

Creation date: Dec. 12, 2025, 10:14 a.m.

Reference frame: TEME

Reference center: EARTH

Epoch: Dec. 12, 2025, 3:32 a.m. UTC

TLE line 0: 0 IRS 1A

TLE line 1: 1 18960U 88021A 25346.14759454 -.00000090 00000-0 -33762-4 0 9998

TLE line 2: 2 18960 98.8802 42.4840 0014200 9.3264 45.1487 13.97142499827054

Live tracking on map

Real-time ground track for satellite IRS 1A.

In-orbit conjunctions

A list of the most updated potential collisions computed for object IRS 1A.

Target Orbit TCA Probability of collision Miss distance Type
SL-14 DEB LEO 2025-05-03 17:14:04 0.0001982747 161.0 (m) DEBRIS
COSMOS 1275 DEB LEO 2024-11-15 06:32:40 0.0001722992 566.0 (m) DEBRIS
FENGYUN 1C DEB SSO 2024-08-11 08:54:09 0.000145466 769.0 (m) DEBRIS
DELTA 1 DEB SSO 2024-08-08 09:53:18 0.000236155 957.0 (m) DEBRIS

Associated space launch

Indian remote sensing satellite

IRS 1A was lifted into orbit during the mission ‘Vostok 8A92M | IRS-1A’, on board a Vostok 8A92M space rocket.

The launch took place on March 17, 1988, 6:43 a.m. from 31/6.

For more information about the launch, click the button.

Launch to space Vostok 8A92M | IRS-1A
Vostok 8A92M | IRS-1A

Agency: N/A

Status: Launch Successful

Launch date: March 17, 1988, 6:43 a.m. UTC

Rocket: Vostok 8A92M

Launch pad: 31/6

Location: Baikonur Cosmodrome, Republic of Kazakhstan

...

Latest news about this satellite

There are no fresh news available about this satellite. Check back as we update our databases every day.


Newsletter sign-up

Weekly statistics, charts and insights to help you stay on top of the space industry.